DLH490 EDDF-KSEA

Flight info

Callsign DLH490
Flight time N/A
Altitude 36000
Route OBOKA3D/07C OBOKA Z28 DIBIR DCT BUDIP DCT PETIK DCT AMGOD DCT TOPPA DCT ROLUM DCT UPNAL DCT NALAN/M080F360 DCT 63N010W/M081F380 6730N02000W 70N030W 72N040W 73N060W DCT MEDPA/N0471F380 DCT 71N080W/N0474F400 6830N09000W 65N100W 60N110W 55N116W DCT LONRO DCT YDC DCT JAKSN GLASR3
Aircraft A343/H-SDE2E3FGHIJ3J5M1P2RWXYZ/LB1D1

Departure

Time 2026-05-01 12:11
Airport Frankfurt Main Airport (EDDF)

Arrival

Time N/A
Airport Seattle–Tacoma International Airport (KSEA)
Time Latitude Longitude Altitude Speed Heading
2026-05-01 11:47 50.04025 8.54337 352 ft 0 kts 69°
2026-05-01 11:56 50.04025 8.54335 352 ft 2 kts 69°
2026-05-01 11:56 50.04016 8.54300 354 ft 2 kts 69°
2026-05-01 11:56 50.04009 8.54267 360 ft 4 kts 78°
2026-05-01 11:56 50.04008 8.54228 354 ft 4 kts 117°
2026-05-01 11:57 50.04017 8.54211 351 ft 4 kts 159°
2026-05-01 11:57 50.03998 8.54223 357 ft 4 kts 159°
2026-05-01 11:57 50.03978 8.54234 353 ft 0 kts 159°
2026-05-01 12:01 50.03959 8.54245 357 ft 7 kts 160°
2026-05-01 12:01 50.03920 8.54268 359 ft 5 kts 160°
2026-05-01 12:01 50.03918 8.54269 358 ft 0 kts 160°
2026-05-01 12:04 50.03911 8.54273 350 ft 4 kts 160°
2026-05-01 12:04 50.03835 8.54317 358 ft 14 kts 160°
2026-05-01 12:04 50.03768 8.54354 350 ft 2 kts 160°
2026-05-01 12:04 50.03765 8.54357 350 ft 0 kts 160°
2026-05-01 12:05 50.03764 8.54357 348 ft 0 kts 160°
2026-05-01 12:05 50.03763 8.54357 348 ft 0 kts 160°
2026-05-01 12:06 50.03757 8.54361 348 ft 3 kts 160°
2026-05-01 12:06 50.03723 8.54380 354 ft 8 kts 161°
2026-05-01 12:06 50.03674 8.54349 357 ft 8 kts 220°
2026-05-01 12:06 50.03622 8.54312 356 ft 9 kts 183°
2026-05-01 12:07 50.03590 8.54322 351 ft 0 kts 162°
2026-05-01 12:07 50.03566 8.54335 352 ft 5 kts 160°
2026-05-01 12:07 50.03560 8.54339 345 ft 0 kts 159°
2026-05-01 12:07 50.03491 8.54379 356 ft 18 kts 159°
2026-05-01 12:08 50.03374 8.54446 344 ft 19 kts 160°
2026-05-01 12:08 50.03250 8.54410 341 ft 21 kts 225°
2026-05-01 12:08 50.03191 8.54216 343 ft 19 kts 249°
2026-05-01 12:08 50.03138 8.53995 336 ft 25 kts 249°
2026-05-01 12:09 50.03077 8.53740 337 ft 23 kts 250°
2026-05-01 12:09 50.03140 8.53568 335 ft 19 kts 333°
2026-05-01 12:09 50.03253 8.53531 353 ft 15 kts 20°
2026-05-01 12:09 50.03320 8.53702 353 ft 32 kts 69°
2026-05-01 12:10 50.03450 8.54248 355 ft 77 kts 69°
2026-05-01 12:10 50.04011 8.56583 366 ft 148 kts 70°
2026-05-01 12:10 50.04398 8.58203 504 ft 163 kts 69°
2026-05-01 12:11 50.05223 8.61400 1316 ft 172 kts 68°
2026-05-01 12:11 50.05568 8.62594 1456 ft 185 kts 67°
2026-05-01 12:11 50.06132 8.64478 1723 ft 202 kts 65°
2026-05-01 12:12 50.06802 8.66501 2040 ft 219 kts 58°
2026-05-01 12:12 50.07892 8.68302 2428 ft 239 kts 37°
2026-05-01 12:12 50.09376 8.69557 3044 ft 247 kts 28°
2026-05-01 12:12 50.10946 8.70790 3608 ft 258 kts 31°
2026-05-01 12:13 50.12418 8.72051 4285 ft 262 kts 32°
2026-05-01 12:13 50.14030 8.73430 5050 ft 265 kts 32°
2026-05-01 12:13 50.15666 8.74825 5814 ft 268 kts 32°
2026-05-01 12:13 50.17322 8.76211 6542 ft 272 kts 31°
2026-05-01 12:14 50.18998 8.77613 7242 ft 276 kts 31°
2026-05-01 12:14 50.20702 8.79046 7915 ft 279 kts 31°
2026-05-01 12:14 50.22426 8.80493 8558 ft 283 kts 31°
2026-05-01 12:14 50.24193 8.81890 9207 ft 288 kts 25°
2026-05-01 12:15 50.26144 8.82538 9786 ft 296 kts
2026-05-01 12:15 50.28161 8.81786 10373 ft 303 kts 333°
2026-05-01 12:15 50.29801 8.79643 10742 ft 318 kts 305°
2026-05-01 12:15 50.30651 8.76408 11018 ft 330 kts 279°
2026-05-01 12:16 50.31020 8.72786 11299 ft 344 kts 279°
2026-05-01 12:16 50.31510 8.69044 11577 ft 358 kts 283°
2026-05-01 12:16 50.32161 8.65209 11848 ft 371 kts 286°
2026-05-01 12:16 50.32910 8.61330 12188 ft 380 kts 287°
2026-05-01 12:17 50.33727 8.57353 12657 ft 385 kts 288°
2026-05-01 12:17 50.34569 8.53352 13223 ft 388 kts 288°
2026-05-01 12:17 50.35432 8.49308 13783 ft 391 kts 289°
2026-05-01 12:17 50.36290 8.45309 14341 ft 394 kts 289°
2026-05-01 12:18 50.37161 8.41227 14930 ft 396 kts 288°
2026-05-01 12:18 50.37705 8.36987 15436 ft 399 kts 271°
2026-05-01 12:18 50.37400 8.32687 15973 ft 399 kts 254°
2026-05-01 12:18 50.36608 8.28506 16496 ft 401 kts 251°
2026-05-01 12:19 50.35755 8.24334 17023 ft 403 kts 251°
2026-05-01 12:19 50.34899 8.20133 17514 ft 406 kts 251°
2026-05-01 12:19 50.34038 8.15886 17994 ft 408 kts 252°
2026-05-01 12:19 50.33178 8.11636 18505 ft 411 kts 252°
2026-05-01 12:20 50.32313 8.07351 18958 ft 413 kts 252°
2026-05-01 12:20 50.31456 8.03107 19423 ft 416 kts 252°
2026-05-01 12:20 50.30580 7.98778 19893 ft 418 kts 252°
2026-05-01 12:20 50.29880 7.94344 20324 ft 421 kts 262°
2026-05-01 12:21 50.29877 7.89769 20758 ft 423 kts 279°
2026-05-01 12:21 50.30685 7.85341 21192 ft 424 kts 293°
2026-05-01 12:21 50.31880 7.81111 21610 ft 426 kts 295°
2026-05-01 12:21 50.33112 7.76939 22022 ft 428 kts 295°
2026-05-01 12:22 50.34395 7.72715 22408 ft 430 kts 298°
2026-05-01 12:22 50.36049 7.68807 22784 ft 431 kts 311°
2026-05-01 12:22 50.38232 7.65597 23150 ft 431 kts 325°
2026-05-01 12:22 50.40829 7.63252 23499 ft 432 kts 336°
2026-05-01 12:23 50.43581 7.61322 23848 ft 434 kts 338°
2026-05-01 12:23 50.46365 7.59436 24197 ft 436 kts 337°
2026-05-01 12:23 50.49118 7.57562 24539 ft 437 kts 337°
2026-05-01 12:23 50.51923 7.55641 24883 ft 439 kts 337°
2026-05-01 12:24 50.54722 7.53684 25198 ft 441 kts 335°
2026-05-01 12:24 50.57414 7.51321 25521 ft 443 kts 329°
2026-05-01 12:24 50.60023 7.48697 25841 ft 445 kts 328°
2026-05-01 12:24 50.62625 7.46026 26148 ft 447 kts 327°
2026-05-01 12:25 50.65204 7.43373 26440 ft 448 kts 328°
2026-05-01 12:25 50.70446 7.37980 26999 ft 451 kts 328°
2026-05-01 12:25 50.73018 7.35126 27270 ft 453 kts 322°
2026-05-01 12:26 50.75307 7.31679 27534 ft 456 kts 311°
2026-05-01 12:26 50.79173 7.23669 28061 ft 459 kts 306°
2026-05-01 12:26 50.80990 7.19569 28312 ft 461 kts 306°
2026-05-01 12:27 50.82815 7.15383 28551 ft 462 kts 305°
2026-05-01 12:27 50.86482 7.06979 29007 ft 465 kts 306°
2026-05-01 12:28 50.90200 6.98543 29456 ft 467 kts 306°
2026-05-01 12:28 50.92074 6.94315 29679 ft 469 kts 306°
2026-05-01 12:28 50.95802 6.85877 30121 ft 471 kts 306°
2026-05-01 12:29 50.97684 6.81607 30309 ft 472 kts 306°
2026-05-01 12:29 50.99564 6.77332 30564 ft 472 kts 306°
2026-05-01 12:29 51.03312 6.68780 31099 ft 470 kts 306°
2026-05-01 12:30 51.07040 6.60252 31601 ft 469 kts 306°
2026-05-01 12:30 51.08879 6.56038 31820 ft 469 kts 305°
2026-05-01 12:30 51.10737 6.51782 32062 ft 468 kts 305°
2026-05-01 12:31 51.12589 6.47523 32287 ft 467 kts 305°
2026-05-01 12:31 51.14432 6.43273 32504 ft 467 kts 305°
2026-05-01 12:31 51.16275 6.39017 32698 ft 466 kts 305°
2026-05-01 12:31 51.18116 6.34760 32922 ft 466 kts 305°
2026-05-01 12:32 51.19949 6.30507 33121 ft 465 kts 305°
2026-05-01 12:32 51.23608 6.22000 33554 ft 463 kts 305°
2026-05-01 12:32 51.25427 6.17764 33740 ft 463 kts 305°
2026-05-01 12:33 51.27226 6.13570 33926 ft 462 kts 304°
2026-05-01 12:33 51.29038 6.09324 34121 ft 461 kts 304°
2026-05-01 12:33 51.30817 6.05033 34292 ft 461 kts 303°
2026-05-01 12:33 51.32572 6.00723 34441 ft 461 kts 303°
2026-05-01 12:34 51.34291 5.96471 34600 ft 461 kts 303°
2026-05-01 12:34 51.36038 5.92169 34692 ft 462 kts 304°
2026-05-01 12:34 51.38012 5.88093 34832 ft 462 kts 313°
2026-05-01 12:34 51.40317 5.84505 35000 ft 461 kts 319°
2026-05-01 12:35 51.42747 5.81150 35128 ft 461 kts 320°
2026-05-01 12:35 51.45219 5.77879 35279 ft 460 kts 321°
2026-05-01 12:35 51.47712 5.74645 35385 ft 460 kts 321°
2026-05-01 12:35 51.50182 5.71460 35521 ft 460 kts 321°
2026-05-01 12:36 51.52675 5.68242 35655 ft 460 kts 321°
2026-05-01 12:36 51.55173 5.65007 35793 ft 459 kts 321°
2026-05-01 12:36 51.57655 5.61776 35913 ft 459 kts 321°
2026-05-01 12:36 51.60138 5.58532 36035 ft 459 kts 321°
2026-05-01 12:37 51.65096 5.52027 36206 ft 460 kts 321°
2026-05-01 12:37 51.70076 5.45471 36285 ft 463 kts 321°
2026-05-01 12:38 51.75020 5.38940 36278 ft 461 kts 320°
2026-05-01 12:38 51.79986 5.32364 36275 ft 460 kts 320°
2026-05-01 12:39 51.84927 5.25808 36276 ft 461 kts 320°
2026-05-01 12:39 51.89890 5.19197 36267 ft 461 kts 320°
2026-05-01 12:40 51.94809 5.12624 36266 ft 461 kts 320°
2026-05-01 12:40 51.99778 5.05967 36267 ft 462 kts 320°
2026-05-01 12:41 52.04730 4.99319 36266 ft 462 kts 320°
2026-05-01 12:41 52.09662 4.92668 36262 ft 462 kts 320°
2026-05-01 12:42 52.14611 4.85978 36257 ft 462 kts 320°
2026-05-01 12:42 52.19569 4.79256 36261 ft 463 kts 320°
2026-05-01 12:43 52.24493 4.72558 36266 ft 463 kts 320°
2026-05-01 12:43 52.29455 4.65791 36266 ft 463 kts 320°
2026-05-01 12:44 52.34383 4.59046 36266 ft 463 kts 319°
2026-05-01 12:45 52.44266 4.45468 36264 ft 464 kts 319°
2026-05-01 12:45 52.49205 4.38649 36266 ft 464 kts 319°
2026-05-01 12:46 52.54150 4.31803 36266 ft 464 kts 319°
2026-05-01 12:46 52.58962 4.25124 36266 ft 464 kts 319°
2026-05-01 12:47 52.63885 4.18235 36266 ft 464 kts 318°
2026-05-01 12:47 52.68695 4.11203 36257 ft 464 kts 317°
2026-05-01 12:48 52.73505 4.04084 36257 ft 464 kts 317°
2026-05-01 12:48 52.78329 3.96969 36257 ft 464 kts 317°
2026-05-01 12:49 52.83135 3.89884 36258 ft 466 kts 317°
2026-05-01 12:49 52.87982 3.82723 36257 ft 466 kts 317°
2026-05-01 12:50 52.92829 3.75541 36257 ft 466 kts 317°
2026-05-01 12:50 52.98203 3.69539 36258 ft 468 kts 335°
2026-05-01 12:51 53.04421 3.66507 36265 ft 470 kts 348°
2026-05-01 12:52 53.14078 3.63676 36266 ft 471 kts 350°
2026-05-01 12:52 53.23797 3.60951 36266 ft 472 kts 349°
2026-05-01 12:53 53.33492 3.58140 36266 ft 472 kts 349°
2026-05-01 12:54 53.39986 3.56236 36260 ft 473 kts 349°
2026-05-01 12:54 53.49696 3.53515 36257 ft 472 kts 350°
2026-05-01 12:55 53.59442 3.50869 36258 ft 472 kts 350°
2026-05-01 12:56 53.65808 3.48529 36248 ft 471 kts 339°
2026-05-01 12:56 53.71680 3.43745 36245 ft 469 kts 329°
2026-05-01 12:57 53.77291 3.38112 36249 ft 469 kts 327°
2026-05-01 12:57 53.85628 3.29428 36239 ft 469 kts 327°